FW5122 Weather Reports


Display with metric or nautical units.
time (UTC)temp
F
wind
direction
speed
MPH
gust
MPH
rain 1hr
in
rain 24hr
in
rain mn
in
humidity
%
barometer
mb
20260831210332 105 59 11.0 12.0 0.00 0.00 0.00 30 1014.8
20260831204932 103 55 2.0 12.0 0.00 0.00 0.00 31 1015.1
20260831204231 103 76 2.0 12.0 0.00 0.00 0.00 31 1015.5
20260831203531 104 62 2.0 12.0 0.00 0.00 0.00 30 1015.5
20260831202831 104 60 5.0 17.0 0.00 0.00 0.00 31 1015.8
20260831202136 103 69 17.0 17.0 0.00 0.00 0.00 32 1015.8
20260831201431 104 64 8.0 17.0 0.00 0.00 0.00 31 1015.8
20260831200031 103 92 11.0 17.0 0.00 0.00 0.00 33 1015.8
20260831195331 102 67 5.0 17.0 0.00 0.00 0.00 33 1015.8
20260831194631 102 16 5.0 17.0 0.00 0.00 0.00 33 1016.2
20260831193931 101 40 11.0 17.0 0.00 0.00 0.00 34 1016.2
20260831193231 101 66 5.0 10.0 0.00 0.00 0.00 35 1016.5
20260831192531 101 73 8.0 14.0 0.00 0.00 0.00 35 1016.5
20260831191833 101 55 2.0 14.0 0.00 0.00 0.00 34 1016.5
20260831191132 101 57 2.0 14.0 0.00 0.00 0.00 34 1016.8
20260831190431 101 59 2.0 14.0 0.00 0.00 0.00 36 1016.5
20260831185731 100 59 5.0 14.0 0.00 0.00 0.00 36 1016.5
20260831185031 100 59 5.0 14.0 0.00 0.00 0.00 36 1016.8
20260831184331 101 83 5.0 14.0 0.00 0.00 0.00 36 1016.8
20260831183631 102 47 5.0 14.0 0.00 0.00 0.00 36 1016.8
20260831182931 101 108 5.0 10.0 0.00 0.00 0.00 36 1016.8
20260831182231 102 76 5.0 10.0 0.00 0.00 0.00 37 1017.2
20260831181531 101 85 5.0 10.0 0.00 0.00 0.00 38 1017.2
20260831180831 102 64 2.0 10.0 0.00 0.00 0.00 38 1017.2
20260831175431 102 61 5.0 10.0 0.00 0.00 0.00 39 1017.5
20260831174733 101 63 5.0 10.0 0.00 0.00 0.00 39 1017.5
20260831174031 101 38 5.0 10.0 0.00 0.00 0.00 39 1017.9
20260831172631 100 56 2.0 10.0 0.00 0.00 0.00 39 1017.9
20260831171931 100 57 5.0 10.0 0.00 0.00 0.00 40 1018.2
20260831171231 100 131 5.0 10.0 0.00 0.00 0.00 41 1017.9
20260831170530 100 88 8.0 8.0 0.00 0.00 0.00 43 1018.2
20260831165831 99 99 5.0 8.0 0.00 0.00 0.00 43 1018.2
20260831165130 99 93 5.0 6.0 0.00 0.00 0.00 42 1018.2
20260831164431 99 91 5.0 6.0 0.00 0.00 0.00 43 1018.2
20260831163031 98 79 5.0 6.0 0.00 0.00 0.00 44 1018.2
20260831162330 98 77 2.0 6.0 0.00 0.00 0.00 45 1018.2
20260831161631 97 58 5.0 6.0 0.00 0.00 0.00 46 1018.2
20260831160931 96 91 2.0 6.0 0.00 0.00 0.00 46 1018.2
20260831160231 96 71 2.0 6.0 0.00 0.00 0.00 48 1018.2
20260831155530 95 47 2.0 6.0 0.00 0.00 0.00 49 1018.2
20260831154130 93 58 2.0 8.0 0.00 0.00 0.00 51 1018.5
20260831153430 92 69 2.0 8.0 0.00 0.00 0.00 52 1018.5
20260831152731 91 91 8.0 8.0 0.00 0.00 0.00 54 1018.2
20260831151331 89 66 5.0 8.0 0.00 0.00 0.00 56 1018.2
20260831150630 88 66 5.0 8.0 0.00 0.00 0.00 57 1018.2
20260831145931 88 67 2.0 8.0 0.00 0.00 0.00 58 1018.2
20260831145230 87 52 0.0 8.0 0.00 0.00 0.00 59 1018.2
20260831144530 87 64 5.0 8.0 0.00 0.00 0.00 59 1018.2
20260831143830 87 57 0.0 8.0 0.00 0.00 0.00 59 1018.2
20260831143130 86 57 0.0 8.0 0.00 0.00 0.00 60 1018.2
20260831142430 86 66 0.0 8.0 0.00 0.00 0.00 60 1018.2
20260831141730 86 61 0.0 8.0 0.00 0.00 0.00 60 1018.2
20260831141030 86 68 5.0 6.0 0.00 0.00 0.00 61 1018.2
20260831140330 86 43 5.0 6.0 0.00 0.00 0.00 62 1017.9
20260831135630 85 59 0.0 6.0 0.00 0.00 0.00 63 1018.2
20260831134230 83 59 0.0 6.0 0.00 0.00 0.00 66 1017.9
20260831133530 82 53 0.0 6.0 0.00 0.00 0.00 67 1017.5
20260831132130 80 57 2.0 6.0 0.00 0.00 0.00 67 1017.5
20260831131430 80 71 5.0 6.0 0.00 0.00 0.00 67 1017.9
20260831130029 79 51 2.0 6.0 0.00 0.00 0.00 67 1017.5
20260831125531 79 68 5.0 6.0 0.00 0.00 0.00 67 1017.5
20260831124831 79 83 5.0 4.0 0.00 0.00 0.00 67 1017.2
20260831124131 79 60 0.0 4.0 0.00 0.00 0.00 67 1017.2
20260831123431 79 59 0.0 4.0 0.00 0.00 0.00 67 1017.2
20260831122031 79 57 0.0 4.0 0.00 0.00 0.00 67 1016.8
20260831121331 79 59 0.0 4.0 0.00 0.00 0.00 67 1016.8
20260831115934 79 63 0.0 2.0 0.00 0.00 0.00 66 1016.5
20260831115234 79 59 0.0 2.0 0.00 0.00 0.00 66 1016.2
20260831114534 80 61 0.0 2.0 0.00 0.00 0.00 66 1016.5
20260831113833 80 59 0.0 4.0 0.00 0.00 0.00 65 1016.5
20260831113134 80 61 0.0 4.0 0.00 0.00 0.00 65 1016.2
20260831112433 80 62 0.0 4.0 0.00 0.00 0.00 65 1016.2
20260831111033 80 59 0.0 4.0 0.00 0.00 0.00 64 1016.2
20260831110335 80 54 0.0 4.0 0.00 0.00 0.00 63 1015.8
20260831105633 80 58 0.0 4.0 0.00 0.00 0.00 63 1015.8
20260831104234 81 60 0.0 2.0 0.00 0.00 0.00 62 1015.8
20260831103534 81 59 0.0 2.0 0.00 0.00 0.00 61 1015.8
20260831102834 82 60 0.0 6.0 0.00 0.00 0.00 61 1015.8
20260831102134 82 60 0.0 6.0 0.00 0.00 0.00 60 1016.2
20260831101433 83 59 0.0 6.0 0.00 0.00 0.00 60 1015.8
20260831100734 83 62 0.0 8.0 0.00 0.00 0.00 60 1015.8
20260831100034 83 61 0.0 8.0 0.00 0.00 0.00 60 1015.8
20260831095333 84 50 0.0 8.0 0.00 0.00 0.00 59 1015.8
20260831094634 84 59 0.0 8.0 0.00 0.00 0.00 59 1015.8
20260831093933 84 62 0.0 8.0 0.00 0.00 0.00 58 1015.8
20260831092533 84 63 0.0 8.0 0.00 0.00 0.00 58 1015.8
20260831091835 84 68 2.0 8.0 0.00 0.00 0.00 57 1015.8
20260831091133 84 57 0.0 8.0 0.00 0.00 0.00 57 1015.8
20260831090434 84 60 0.0 8.0 0.00 0.00 0.00 56 1015.8
20260831085733 84 64 0.0 8.0 0.00 0.00 0.00 55 1015.8
20260831085033 85 61 0.0 10.0 0.00 0.00 0.00 55 1015.5
20260831084334 85 60 2.0 10.0 0.00 0.00 0.00 54 1015.5
20260831082933 85 54 0.0 10.0 0.00 0.00 0.00 54 1015.5
20260831081533 85 62 2.0 10.0 0.00 0.00 0.00 53 1015.5
20260831080833 85 61 0.0 10.0 0.00 0.00 0.00 53 1015.1
20260831075433 85 58 5.0 6.0 0.00 0.00 0.00 53 1015.1
20260831074733 85 252 5.0 6.0 0.00 0.00 0.00 53 1015.1
20260831074033 84 69 5.0 6.0 0.00 0.00 0.00 53 1015.5
20260831073334 84 60 0.0 6.0 0.00 0.00 0.00 53 1015.5
20260831072633 83 60 0.0 4.0 0.00 0.00 0.00 53 1015.5
20260831071933 83 59 2.0 2.0 0.00 0.00 0.00 54 1015.1
20260831071233 83 50 0.0 2.0 0.00 0.00 0.00 55 1015.1
20260831065133 83 61 0.0 0.0 0.00 0.00 0.00 54 1015.5
20260831063733 83 59 0.0 0.0 0.00 0.00 0.00 53 1015.5
20260831063035 84 59 0.0 0.0 0.00 0.00 0.00 53 1015.1
20260831062333 84 59 0.0 0.0 0.00 0.00 0.00 53 1015.5
20260831061633 84 61 0.0 0.0 0.00 0.00 0.00 53 1015.1
20260831060933 84 62 0.0 0.0 0.00 0.00 0.00 52 1015.1
20260831060233 84 61 0.0 0.0 0.00 0.00 0.00 52 1015.1
20260831054833 84 62 0.0 0.0 0.00 0.00 0.00 51 1015.8
20260831052733 85 59 0.0 0.0 0.00 0.00 0.00 50 1015.5
20260831052033 85 59 0.0 0.0 0.00 0.00 0.00 50 1015.1
20260831051333 85 59 0.0 0.0 0.00 0.00 0.00 49 1014.8
20260831050633 86 59 0.0 0.0 0.00 0.00 0.00 49 1015.1
20260831045933 86 59 0.0 0.0 0.00 0.00 0.00 49 1015.1
20260831045233 86 59 0.0 0.0 0.00 0.00 0.00 49 1015.1
20260831044533 86 59 0.0 4.0 0.00 0.00 0.00 49 1015.1
20260831041733 87 59 0.0 4.0 0.00 0.00 0.00 47 1015.1
20260831040333 87 58 0.0 4.0 0.00 0.00 0.00 46 1015.1
20260831035633 87 59 0.0 4.0 0.00 0.00 0.00 46 1015.1
20260831034933 87 59 0.0 4.0 0.00 0.00 0.00 46 1015.1
20260831034233 87 59 0.0 4.0 0.00 0.00 0.00 46 1014.8
20260831033533 88 59 0.0 4.0 0.00 0.00 0.00 46 1014.8
20260831032833 88 59 0.0 4.0 0.00 0.00 0.00 45 1014.8
20260831032133 88 59 0.0 4.0 0.00 0.00 0.00 45 1014.8
20260831031433 89 60 0.0 4.0 0.00 0.00 0.00 44 1014.8
20260831030733 89 60 0.0 4.0 0.00 0.00 0.00 44 1014.8
20260831030033 89 59 0.0 4.0 0.00 0.00 0.00 43 1014.8
20260831025333 90 59 0.0 4.0 0.00 0.00 0.00 43 1014.8
20260831023933 91 59 0.0 6.0 0.00 0.00 0.00 41 1014.5
20260831023233 91 69 5.0 6.0 0.00 0.00 0.00 41 1014.5
20260831022532 92 60 0.0 6.0 0.00 0.00 0.00 40 1014.1
20260831021832 92 65 5.0 6.0 0.00 0.00 0.00 40 1014.1
20260831021132 92 64 0.0 6.0 0.00 0.00 0.00 40 1014.1
20260831020433 92 60 0.0 6.0 0.00 0.00 0.00 39 1014.1
20260831015733 93 60 0.0 6.0 0.00 0.00 0.00 39 1013.8
20260831014333 93 64 2.0 6.0 0.00 0.00 0.00 38 1013.5
20260831013632 93 62 0.0 6.0 0.00 0.00 0.00 38 1013.8
20260831012932 93 66 5.0 6.0 0.00 0.00 0.00 38 1013.5
20260831012233 94 56 5.0 6.0 0.00 0.00 0.00 38 1013.5
20260831011532 94 59 0.0 6.0 0.00 0.00 0.00 38 1013.5
20260831010832 94 60 2.0 6.0 0.00 0.00 0.00 37 1013.5
20260831005433 95 59 0.0 8.0 0.00 0.00 0.00 37 1013.5
20260831004732 95 111 5.0 14.0 0.00 0.00 0.00 37 1013.1
20260831004032 95 63 2.0 14.0 0.00 0.00 0.00 37 1013.5
20260831003333 95 65 0.0 14.0 0.00 0.00 0.00 37 1013.1
20260831002632 96 64 0.0 14.0 0.00 0.00 0.00 37 1013.1
20260831001932 96 64 2.0 14.0 0.00 0.00 0.00 36 1013.1
20260831000532 96 68 5.0 14.0 0.00 0.00 0.00 36 1013.5
20260830235832 97 140 11.0 17.0 0.00 0.00 0.00 36 1013.5
20260830235132 97 105 8.0 17.0 0.00 0.00 0.00 36 1013.5
20260830234433 97 66 5.0 17.0 0.00 0.00 0.00 35 1013.5
20260830233732 98 84 8.0 17.0 0.00 0.00 0.00 35 1013.1
20260830233032 98 80 8.0 17.0 0.00 0.00 0.00 35 1013.5
20260830232332 98 114 14.0 17.0 0.00 0.00 0.00 34 1013.5
20260830231632 98 131 11.0 17.0 0.00 0.00 0.00 34 1013.5
20260830230932 98 85 8.0 17.0 0.00 0.00 0.00 34 1013.5
20260830230232 98 59 2.0 14.0 0.00 0.00 0.00 34 1013.5
20260830225532 98 58 5.0 14.0 0.00 0.00 0.00 34 1013.5
20260830224832 99 56 8.0 14.0 0.00 0.00 0.00 33 1013.8
20260830224132 99 131 17.0 14.0 0.00 0.00 0.00 33 1013.8
20260830222036 100 50 2.0 14.0 0.00 0.00 0.00 32 1013.5
20260830221332 101 49 5.0 14.0 0.00 0.00 0.00 31 1013.8
20260830215232 103 132 8.0 21.0 0.00 0.00 0.00 32 1013.5
20260830214532 102 91 5.0 21.0 0.00 0.00 0.00 32 1013.8
20260830213132 102 63 2.0 21.0 0.00 0.00 0.00 31 1014.1
20260830212432 104 67 2.0 21.0 0.00 0.00 0.00 31 1014.1
20260830211732 106 87 11.0 21.0 0.00 0.00 0.00 30 1014.1
20260830211032 105 58 0.0 12.0 0.00 0.00 0.00 31 1014.1